| time (UTC) | temp F | wind direction | speed MPH | gust MPH | rain 1hr in | rain 24hr in | rain mn in | humidity % | barometer mb |
| 20260904024545 | 62 | 0 | 0.0 | 0.0 | 0.00 | 0.00 | 0.00 | 74 | 981.0 |
| 20260904021544 | 62 | 15 | 0.0 | 0.0 | 0.00 | 0.00 | 0.00 | 74 | 981.3 |
| 20260904014546 | 62 | 0 | 0.0 | 0.0 | 0.00 | 0.00 | 0.00 | 74 | 981.4 |
| 20260904011546 | 63 | 15 | 0.0 | 0.0 | 0.00 | 0.00 | 0.00 | 72 | 981.5 |
| 20260904004544 | 64 | 0 | 0.0 | 0.0 | 0.00 | 0.00 | 0.00 | 72 | 981.7 |
| 20260904001544 | 64 | 0 | 0.0 | 0.0 | 0.00 | 0.00 | 0.00 | 71 | 981.8 |
| 20260903234545 | 64 | 0 | 0.0 | 0.0 | 0.00 | 0.00 | 0.00 | 70 | 982.0 |
| 20260903232940 | 65 | 0 | 0.0 | 0.0 | 0.00 | 0.00 | 0.00 | 69 | 982.0 |
| 20260903224543 | 65 | 0 | 0.0 | 0.0 | 0.00 | 0.00 | 0.00 | 68 | 982.1 |
| 20260903221543 | 67 | 0 | 0.0 | 0.0 | 0.00 | 0.00 | 0.00 | 64 | 982.3 |
| 20260903214544 | 68 | 0 | 0.0 | 0.0 | 0.00 | 0.00 | 0.00 | 62 | 982.2 |
| 20260903211542 | 69 | 0 | 0.0 | 0.0 | 0.00 | 0.00 | 0.00 | 62 | 982.2 |
| 20260903205931 | 69 | 0 | 0.0 | 0.0 | 0.00 | 0.00 | 0.00 | 60 | 982.2 |
| 20260903201541 | 69 | 12 | 0.0 | 0.0 | 0.00 | 0.00 | 0.00 | 60 | 982.3 |
| 20260903195915 | 71 | 11 | 0.0 | 0.0 | 0.00 | 0.00 | 0.00 | 57 | 982.1 |
| 20260903191539 | 72 | 13 | 0.0 | 0.0 | 0.00 | 0.00 | 0.00 | 56 | 981.9 |
| 20260903185917 | 75 | 0 | 0.0 | 0.0 | 0.00 | 0.00 | 0.00 | 51 | 981.7 |
| 20260903181537 | 78 | 11 | 0.0 | 0.0 | 0.00 | 0.00 | 0.00 | 48 | 981.5 |
| 20260903174537 | 80 | 0 | 0.0 | 0.0 | 0.00 | 0.00 | 0.00 | 45 | 981.5 |
| 20260903171536 | 82 | 0 | 0.0 | 3.0 | 0.00 | 0.00 | 0.00 | 43 | 981.4 |
| 20260903164532 | 83 | 0 | 0.0 | 6.0 | 0.00 | 0.00 | 0.00 | 41 | 981.4 |
| 20260903161533 | 84 | 0 | 0.0 | 6.0 | 0.00 | 0.00 | 0.00 | 41 | 981.3 |
| 20260903154532 | 84 | 0 | 0.0 | 0.0 | 0.00 | 0.00 | 0.00 | 38 | 981.4 |
| 20260903151531 | 84 | 0 | 0.0 | 0.0 | 0.00 | 0.00 | 0.00 | 36 | 981.5 |
| 20260903144531 | 84 | 47 | 0.0 | 0.0 | 0.00 | 0.00 | 0.00 | 37 | 981.6 |
| 20260903141530 | 84 | 0 | 0.0 | 0.0 | 0.00 | 0.00 | 0.00 | 35 | 981.8 |
| 20260903134530 | 85 | 0 | 0.0 | 2.0 | 0.00 | 0.00 | 0.00 | 37 | 982.0 |
| 20260903131530 | 85 | 0 | 0.0 | 2.0 | 0.00 | 0.00 | 0.00 | 37 | 982.2 |
| 20260903124529 | 85 | 29 | 0.0 | 5.0 | 0.00 | 0.00 | 0.00 | 37 | 982.4 |
| 20260903122932 | 86 | 0 | 0.0 | 5.0 | 0.00 | 0.00 | 0.00 | 39 | 982.5 |
| 20260903114528 | 85 | 10 | 0.0 | 9.0 | 0.00 | 0.00 | 0.00 | 42 | 982.7 |
| 20260903111528 | 84 | 348 | 1.0 | 9.0 | 0.00 | 0.00 | 0.00 | 44 | 982.9 |
| 20260903104530 | 83 | 34 | 0.0 | 8.0 | 0.00 | 0.00 | 0.00 | 45 | 983.2 |
| 20260903101527 | 82 | 0 | 0.0 | 4.0 | 0.00 | 0.00 | 0.00 | 47 | 983.5 |
| 20260903094523 | 80 | 9 | 0.0 | 4.0 | 0.00 | 0.00 | 0.00 | 50 | 983.5 |
| 20260903091523 | 78 | 0 | 0.0 | 0.0 | 0.00 | 0.00 | 0.00 | 53 | 983.6 |
| 20260903084527 | 76 | 0 | 0.0 | 0.0 | 0.00 | 0.00 | 0.00 | 57 | 983.6 |
| 20260903081519 | 73 | 0 | 0.0 | 2.0 | 0.00 | 0.00 | 0.00 | 62 | 983.6 |
| 20260903074520 | 70 | 0 | 0.0 | 1.0 | 0.00 | 0.00 | 0.00 | 68 | 983.4 |
| 20260903071519 | 64 | 294 | 0.0 | 0.0 | 0.00 | 0.00 | 0.00 | 80 | 983.2 |
| 20260903064518 | 61 | 294 | 0.0 | 2.0 | 0.00 | 0.00 | 0.00 | 81 | 983.3 |
| 20260903061519 | 59 | 0 | 0.0 | 0.0 | 0.00 | 0.00 | 0.00 | 85 | 983.1 |
| 20260903054519 | 58 | 0 | 0.0 | 1.0 | 0.00 | 0.00 | 0.00 | 84 | 982.8 |
| 20260903054307 | 58 | 0 | 0.0 | 0.0 | 0.00 | 0.00 | 0.00 | 84 | 982.4 |
| 20260903044518 | 58 | 0 | 0.0 | 0.0 | 0.00 | 0.00 | 0.00 | 82 | 982.3 |
| 20260903041515 | 58 | 0 | 0.0 | 0.0 | 0.00 | 0.00 | 0.00 | 82 | 982.2 |
| 20260903034516 | 59 | 0 | 0.0 | 0.0 | 0.00 | 0.00 | 0.00 | 82 | 982.3 |
| 20260903031516 | 59 | 0 | 0.0 | 0.0 | 0.00 | 0.00 | 0.00 | 81 | 982.2 |